User: anonymous   Login
Location: Unspecified
(0.0000°N, 0.0000°E)
Time: 05:43:56
(UTC+00:00)
Language:

GEESAT 6-11 - Orbit

View from above orbital plane
View from above orbital plane
View from above satellite
View from above satellite

Ground track
Ground track

The orbit is defined by the following mean orbital elements,

1 65723U          26145.43407588 +.00000000 +00000-0 +21772-3 0 00005
2 65723  49.9848  53.3453 0009872 134.9697 225.2043 14.83265344    03
Epoch (UTC): 25 May 2026 10:25:04
Eccentricity: 0.0009872
inclination: 49.9848°
perigee height: 612 km
apogee height: 626 km
right ascension of ascending node: 53.3453°
argument of perigee: 134.9697°
revolutions per day: 14.83265344
mean anomaly at epoch: 225.2043°

The dashed part of the orbit path shows where the satellite is in the earth's shadow,  

DLR